TimeEST,TemperatureF,Dew PointF,Humidity,Sea Level PressureIn,VisibilityMPH,Wind Direction,Wind SpeedMPH,Gust SpeedMPH,PrecipitationIn,Events,Conditions,WindDirDegrees,DateUTC
12:53 AM,45.0,28.9,53,30.19,10.0,Calm,Calm,-,N/A,,Clear,0,2013-11-19 05:53:00
1:53 AM,39.0,32.0,76,30.20,10.0,Calm,Calm,-,N/A,,Clear,0,2013-11-19 06:53:00
2:53 AM,39.0,30.0,70,30.20,10.0,NE,3.5,-,N/A,,Clear,40,2013-11-19 07:53:00
3:53 AM,39.0,27.0,62,30.21,10.0,Calm,Calm,-,N/A,,Clear,0,2013-11-19 08:53:00
4:53 AM,39.0,26.1,60,30.22,10.0,NE,3.5,-,N/A,,Clear,50,2013-11-19 09:53:00
5:53 AM,39.0,27.0,62,30.23,10.0,NE,3.5,-,N/A,,Clear,50,2013-11-19 10:53:00
6:53 AM,39.0,26.1,60,30.25,10.0,Variable,5.8,-,N/A,,Clear,0,2013-11-19 11:53:00
7:53 AM,39.0,26.1,60,30.27,10.0,North,4.6,-,N/A,,Clear,360,2013-11-19 12:53:00
8:53 AM,39.9,26.1,58,30.26,10.0,Variable,4.6,-,N/A,,Clear,0,2013-11-19 13:53:00
9:53 AM,44.1,28.0,53,30.28,10.0,Variable,4.6,-,N/A,,Clear,0,2013-11-19 14:53:00
10:53 AM,46.0,27.0,47,30.27,10.0,Variable,6.9,-,N/A,,Clear,0,2013-11-19 15:53:00
11:53 AM,48.9,23.0,36,30.27,10.0,NE,8.1,17.3,N/A,,Clear,50,2013-11-19 16:53:00
12:53 PM,51.1,25.0,36,30.23,10.0,Variable,4.6,-,N/A,,Clear,0,2013-11-19 17:53:00
1:53 PM,51.1,24.1,35,30.22,10.0,ENE,8.1,-,N/A,,Clear,60,2013-11-19 18:53:00
2:53 PM,53.1,23.0,31,30.20,10.0,Variable,6.9,-,N/A,,Clear,0,2013-11-19 19:53:00
3:53 PM,51.1,23.0,33,30.20,10.0,NE,3.5,-,N/A,,Clear,50,2013-11-19 20:53:00
4:53 PM,50.0,23.0,35,30.20,10.0,NE,4.6,-,N/A,,Clear,40,2013-11-19 21:53:00
5:53 PM,48.9,24.1,38,30.21,10.0,Variable,3.5,-,N/A,,Clear,0,2013-11-19 22:53:00
6:53 PM,46.9,25.0,42,30.23,10.0,Variable,5.8,-,N/A,,Clear,0,2013-11-19 23:53:00
7:53 PM,46.0,26.1,46,30.25,10.0,ENE,5.8,-,N/A,,Clear,60,2013-11-20 00:53:00
8:53 PM,45.0,27.0,49,30.25,10.0,ENE,5.8,-,N/A,,Clear,60,2013-11-20 01:53:00
9:00 PM,-9999,-9999,N/A,-9999,-9999.0,North,-9999.0,-,N/A,,Unknown,0,2013-11-20 02:00:00
9:53 PM,45.0,26.1,48,30.24,10.0,NE,5.8,-,N/A,,Clear,50,2013-11-20 02:53:00
10:53 PM,45.0,27.0,49,30.23,10.0,NE,5.8,-,N/A,,Clear,50,2013-11-20 03:53:00
11:53 PM,44.1,27.0,51,30.23,10.0,NE,6.9,-,N/A,,Clear,50,2013-11-20 04:53:00